Location: Lane
(33.5226°N, 79.8788°W)
Time: 16:10:12
(UTC+00:00)

Transit 2A - Pass Details

Date: 30 September 2022
Orbit: 598 x 959 km, 66.7° (Epoch: 06 December)

Event Time Altitude Azimuth Distance (km) Brightness Sun altitude
Rises 03:49:49 0° 185° (S) 3,015 - -54.0°
Reaches altitude 10° 03:52:20 10° 176° (S) 2,054 - -54.3°
Maximum altitude 03:56:29 34° 111° (ESE) 1,028 - -54.8°
Drops below altitude 10° 04:00:26 10° 46° (NE) 1,955 - -55.3°
Sets 04:02:47 0° 37° (NE) 2,847 - -55.5°
